Regional Weather Roundup
Issued by NWS

Home | Current Version | Previous Version | Text Only | Print | Product List | Glossary Off
Versions: 1 2 3 4 5 6 7 8 9 10 11 12 13 14 15 16 17 18 19 20 21 22 23 24 25 26 27 28 29 30 31 32 33 34 35 36 37 38 39 40 41 42 43 44 45 46 47 48 49 50

000
ASUS43 KIND 051859
RWRIN

WEATHER ROUNDUP FOR INDIANA
NATIONAL WEATHER SERVICE INDIANAPOLIS IN
300 PM EDT THU MAY 05 2016

NOTE: "FAIR" INDICATES FEW OR NO CLOUDS BELOW 12,000 FEET WITH NO
SIGNIFICANT WEATHER AND/OR OBSTRUCTIONS TO VISIBILITY.

* - STATION DOES NOT REPORT WEATHER SUCH AS PRECIPITATION OR FOG.

+ - STATION NOT QUALITY CONTROLLED BY THE NATIONAL WEATHER SERVICE.
    USE DATA WITH CAUTION...ESPECIALLY DEWPOINT AND RELATIVE
    HUMIDITY OBSERVATIONS.

INZ001>003-010>013-019-020-052000-
NORTHWEST INDIANA

CITY           SKY/WX    TMP DP  RH WIND       PRES   REMARKS
GARY /AIRPORT/ MOSUNNY   50  46  87 N9G21     30.03S
RENSSELAER +   SUNNY     59  46  63 N15G21    29.96S

$$

LMZ046-743>745-052000-
SOUTHERN LAKE MICHIGAN

STATION/POSITION TIME  TEMP    WIND        PRES    WAVE
                       AIR SEA DIR/SP/G            HT
                 (UTC) (F)     (DEG/KT/KT) (MB)    (FT)
BURNS HARBOR     1817   42     350/ 11/ 15 1016.9F
MICHIGAN CITY    1800   42     310/ 11/ 12   N/A

$$

INZ004-005-014>016-021>024-052000-
NORTH CENTRAL INDIANA

CITY           SKY/WX    TMP DP  RH WIND       PRES   REMARKS
GOSHEN         MOSUNNY   63  46  54 N13       29.91S
SOUTH BEND     SUNNY     55  45  68 NW16      29.96S

$$

INZ006>009-017-018-025>027-052000-
NORTHEAST INDIANA

CITY           SKY/WX    TMP DP  RH WIND       PRES   REMARKS
ANGOLA *+        N/A     64  43  45 N12       29.88S
FORT WAYNE     PTSUNNY   64  47  53 N14       29.88S

$$

INZ028-029-035-036-043>045-051>053-052000-
WEST CENTRAL INDIANA

CITY           SKY/WX    TMP DP  RH WIND       PRES   REMARKS
CRAWFORDSVL +  MOSUNNY   54  47  76 N9        29.95S
GREENCASTLE +  CLOUDY    52  46  82 N10       29.95S
LAFAYETTE      MOSUNNY   61  46  57 N10G20    29.94F
TERRE HAUTE    PTSUNNY   60  46  59 NW13G21   29.94F

$$

INZ030>032-037>040-046>048-054>057-064-065-052000-
CENTRAL INDIANA

CITY           SKY/WX    TMP DP  RH WIND       PRES   REMARKS
ANDERSON       PTSUNNY   59  46  63 N12G23    29.90S
COLUMBUS       CLOUDY    54  48  82 NW14      29.91F
INDIANAPOLIS   PTSUNNY   57  45  64 N13G22    29.91F
-EAGLE CREEK   PTSUNNY   56  46  69 N15       29.92S
KOKOMO *+      PTSUNNY   63  48  59 N15G23    29.90F
SHELBYVILLE    MOSUNNY   62  47  57 N18       29.88F

$$

INZ033-034-041-042-049-050-058-059-052000-
EAST CENTRAL INDIANA

CITY           SKY/WX    TMP DP  RH WIND       PRES   REMARKS
MUNCIE         PTSUNNY   63  45  51 NE15      29.88S

$$

INZ060-061-067>069-081>083-085>088-052000-
SOUTHWEST INDIANA

CITY           SKY/WX    TMP DP  RH WIND       PRES   REMARKS
EVANSVILLE     PTSUNNY   56  44  64 NW12G24   29.96R
HUNTINGBURG *+ CLOUDY    55  45  67 NW15      29.94R

$$

INZ062-063-066-070>080-084-089>092-052000-
SOUTH CENTRAL AND SOUTHEAST INDIANA

CITY           SKY/WX    TMP DP  RH WIND       PRES   REMARKS
BLOOMINGTON    CLOUDY    56  45  66 N16G23    29.93R
MADISON *+     CLOUDY    50  43  76 NW9G16    29.93R
SEYMOUR +      CLOUDY    54  45  71 N8        29.91S

$$





USA.gov is the U.S. government's official web portal to all federal, state and local government web resources and services.